This demonstration page uses our WeatherBlox Daily Observations layout. Learn more.

36.17497, -115.13722

Hourly Observations for March 30, 2018

Temp ( °F °C ) Dew Point ( °F °C ) Humidity (%) Winds ( mph kmh ) Pressure ( in mb ) Visibility ( mi km ) Precip ( " mm )
12:53 am 00:53 Clear 61 16.1 26 -3.3 26 26 NW 7 11 30.06 1018 10 16.0934 0 0
1:53 am 01:53 Clear 60 15.6 24 -4.4 25 25 Calm 30.07 1018 10 16.0934 0 0
2:53 am 02:53 Clear 59 15 24 -4.4 26 26 W 3 6 30.08 1019 10 16.0934 0 0
3:53 am 03:53 Clear 62 16.7 22 -5.6 21 21 N 8 13 30.08 1019 10 16.0934 0 0
4:53 am 04:53 Clear 62 16.7 22 -5.6 21 21 N 14 22 30.09 1019 10 16.0934 0 0
5:53 am 05:53 Clear 59 15 23 -5 25 25 NW 6 9 30.1 1019 10 16.0934 0 0
6:53 am 06:53 Sunny 58 14.4 23 -5 26 26 N 7 11 30.13 1020 10 16.0934 0 0
7:53 am 07:53 Sunny 62 16.7 23 -5 22 22 WNW 3 6 30.15 1021 10 16.0934 0 0
8:53 am 08:53 Sunny 67 19.4 24 -4.4 20 20 N 5 7 30.16 1021 10 16.0934 0 0
9:53 am 09:53 Sunny 70 21.1 24 -4.4 18 18 SW 6 9 30.16 1021 10 16.0934 0 0
10:53 am 10:53 Sunny 73 22.8 22 -5.6 15 15 VRB 6 9 30.16 1021 10 16.0934 0 0
11:53 am 11:53 Sunny 75 23.9 22 -5.6 14 14 ENE 6 9 30.15 1021 10 16.0934 0 0
12:53 pm 12:53 Sunny 76 24.4 22 -5.6 13 13 undefined N/A 30.12 1020 10 16.0934 0 0
1:53 pm 13:53 Sunny 79 26.1 20 -6.7 11 11 Calm 30.09 1019 10 16.0934 0 0
2:53 pm 14:53 Sunny 80 26.7 20 -6.7 10 10 VRB 3 6 30.05 1018 10 16.0934 0 0
3:53 pm 15:53 Sunny 81 27.2 22 -5.6 11 11 SSW 8 13 30.02 1017 10 16.0934 0 0
4:53 pm 16:53 Sunny 83 28.3 20 -6.7 10 10 W 12 19 29.99 1016 10 16.0934 0 0
5:53 pm 17:53 Sunny 82 27.8 19 -7.2 9 9 WNW 7 11 29.99 1016 10 16.0934 0 0
6:53 pm 18:53 Sunny 81 27.2 19 -7.2 10 10 Calm 29.99 1016 10 16.0934 0 0
7:53 pm 19:53 Clear 76 24.4 23 -5 14 14 NE 6 9 30.01 1016 10 16.0934 0 0
8:53 pm 20:53 Clear 74 23.3 24 -4.4 15 15 NE 7 11 30.01 1016 10 16.0934 0 0
9:53 pm 21:53 Clear 71 21.7 25 -3.9 18 18 NNW 5 7 30.03 1017 10 16.0934 0 0
10:53 pm 22:53 Clear 68 20 27 -2.8 21 21 NNW 7 11 30.03 1017 10 16.0934 0 0
11:53 pm 23:53 Clear 66 18.9 24 -4.4 20 20 NW 7 11 30.03 1017 10 16.0934 0 0

Powered by AerisWeather